Regional Weather Roundup
Issued by NWS

Home | Current Version | Previous Version | Graphics & Text | Print | Product List | Glossary On
Versions: 1 2 3 4 5 6 7 8 9 10 11 12 13 14 15 16 17 18 19 20 21 22 23 24 25 26 27 28
000
ASUS45 KBOI 271710
RWRID

IDAHO REGIONAL WEATHER ROUNDUP
NATIONAL WEATHER SERVICE BOISE ID
1100 AM MDT THU JUL 27 2017

NOTE: "FAIR" INDICATES FEW OR NO CLOUDS BELOW 12000 FEET
WITH NO SIGNIFICANT WEATHER AND/OR OBSTRUCTIONS TO VISIBILITY

IDZ012-014-271800-
SOUTHWEST IDAHO


CITY           SKY/WX    TMP DP  RH WIND       PRES   REMARKS
BOISE          SUNNY     82  51  34 VRB5      30.11S
CALDWELL       SUNNY     80  55  42 NE5       30.10S
MOUNTAIN HOME  MOSUNNY   79  56  45 E7        30.12F
$$

IDZ016-017-271800-
SOUTHCENTRAL IDAHO


CITY           SKY/WX    TMP DP  RH WIND       PRES   REMARKS
BURLEY         PTSUNNY   73  54  51 CALM      30.18S
JEROME         MOSUNNY   73  56  54 VRB3      30.20S
TWIN FALLS     SUNNY     75  56  51 NW8       30.20S
$$

IDZ019>023-271800-
SOUTHEAST IDAHO


CITY           SKY/WX    TMP DP  RH WIND       PRES   REMARKS
IDAHO FALLS    CLOUDY    67  57  70 VRB3      30.25R
POCATELLO      CLOUDY    75  55  49 VRB7      30.23F
REXBURG        CLOUDY    66  56  70 CALM      30.24F
$$

IDZ006-010-011-018-031-032-271800-
CENTRAL IDAHO MOUNTAINS


CITY           SKY/WX    TMP DP  RH WIND       PRES   REMARKS
MCCALL         SUNNY     70  48  45 S9        30.21S
HAILEY         PTSUNNY   64  55  72 CALM      30.29F
STANLEY          N/A     68  50  52 VRB5      30.32F
SALMON         NOT AVBL
CHALLIS        CLOUDY    66  52  60 N3        30.24F
$$

IDZ002-004-006-007-026-271800-
NORTHERN IDAHO


CITY           SKY/WX    TMP DP  RH WIND       PRES   REMARKS
LEWISTON       PTSUNNY   78  47  33 CALM      30.03S
LOWELL           N/A     70  59  68 VRB3      30.05F
COEUR D`ALENE  SUNNY     76  53  44 SE10      30.05S
MULLAN PASS    MOSUNNY   68  40  35 CALM      30.24R
$$




USA.gov is the U.S. government's official web portal to all federal, state and local government web resources and services.